This is the latest recevied weather packets stored in our database for station/object KB1ZFK. If no packets are shown the sender has not sent any weather packets the latest 10 day(s).
| Time | Temp. | Humidity | Pressure | Rain* | Wind** | Luminosity | Snow |
|---|---|---|---|---|---|---|---|
| 1778119683 | 12.78° C | 97% | 1005.8 hPa | 0 mm | - | 0 W/m² | - |
| 1778119379 | 12.78° C | 97% | 1005.9 hPa | 0 mm | - | 0 W/m² | - |
| 1778119077 | 13.33° C | 97% | 1005.7 hPa | 1.27 mm | - | 0 W/m² | - |
| 1778118774 | 13.33° C | 96% | 1005.5 hPa | 1.27 mm | - | 0 W/m² | - |
| 1778118471 | 13.33° C | 96% | 1005.5 hPa | 0 mm | - | 0 W/m² | - |
| 1778118167 | 13.89° C | 96% | 1005.5 hPa | 0 mm | - | 0 W/m² | - |
| 1778117864 | 14.44° C | 96% | 1005.2 hPa | 3.05 mm | - | 0 W/m² | - |
| 1778117562 | 14.44° C | 96% | 1005.3 hPa | 7.87 mm | - | 0 W/m² | - |
| 1778117259 | 14.44° C | 96% | 1005.2 hPa | 6.1 mm | - | 0 W/m² | - |
| 1778116954 | 14.44° C | 96% | 1005.2 hPa | 3.05 mm | - | 0 W/m² | - |
| 1778116652 | 14.44° C | 96% | 1005 hPa | 0 mm | - | 0 W/m² | - |
| 1778116349 | 14.44° C | 96% | 1005 hPa | 0 mm | - | 0 W/m² | - |
| 1778116048 | 14.44° C | 96% | 1005 hPa | 0 mm | - | 0 W/m² | - |
| 1778115744 | 14.44° C | 96% | 1005 hPa | 0 mm | - | 0 W/m² | - |
| 1778115442 | 14.44° C | 96% | 1005.1 hPa | 0 mm | - | 0 W/m² | - |
| 1778115138 | 14.44° C | 96% | 1005 hPa | 0 mm | - | 0 W/m² | - |
| 1778114835 | 14.44° C | 96% | 1005.1 hPa | 0 mm | - | 0 W/m² | - |
| 1778114533 | 14.44° C | 96% | 1005 hPa | 0 mm | - | 0 W/m² | - |
| 1778114229 | 14.44° C | 96% | 1005 hPa | 0 mm | - | 0 W/m² | - |
| 1778113924 | 14.44° C | 96% | 1004.8 hPa | 0 mm | - | 0 W/m² | - |
| 1778113620 | 14.44° C | 96% | 1004.7 hPa | 0 mm | - | 0 W/m² | - |
| 1778113316 | 14.44° C | 96% | 1004.8 hPa | 0 mm | - | 0 W/m² | - |
| 1778113013 | 14.44° C | 96% | 1004.7 hPa | 0 mm | - | 0 W/m² | - |
| 1778112710 | 14.44° C | 96% | 1004.7 hPa | 0 mm | - | 0 W/m² | - |
| 1778112407 | 14.44° C | 96% | 1004.8 hPa | 0 mm | - | 0 W/m² | - |
* Rain latest hour (hover to see other rain measurements)
** Current wind speed in m/s (hover to see current wind gust speed)